PAL1 YBAS-YPDN

Flight info

Callsign PAL1
Flight time 1h 40m
Altitude 40000
Route RUPUS J251 TN Q23 VEGPU
Aircraft B77W/H-SDE1E2E3FGHIJ2J3J4J5M1RWXY/LB1D1

Departure

Time 2026-04-22 14:47
Airport Alice Springs Airport (YBAS)

Arrival

Time 2026-04-22 16:28
Airport Darwin International Airport / RAAF Darwin (YPDN)
Time Latitude Longitude Altitude Speed Heading
2026-04-22 14:28 -23.80229 133.90012 1786 ft 0 kts 73°
2026-04-22 14:40 -23.80231 133.90011 1807 ft 4 kts 77°
2026-04-22 14:40 -23.80240 133.89993 1782 ft 4 kts 47°
2026-04-22 14:40 -23.80256 133.89982 1779 ft 4 kts 330°
2026-04-22 14:41 -23.80271 133.90002 1778 ft 4 kts 296°
2026-04-22 14:41 -23.80282 133.90025 1778 ft 1 kts 302°
2026-04-22 14:41 -23.80282 133.90026 1778 ft 0 kts 302°
2026-04-22 14:44 -23.80281 133.90024 1778 ft 2 kts 302°
2026-04-22 14:44 -23.80264 133.89992 1781 ft 8 kts 299°
2026-04-22 14:45 -23.80221 133.89924 1780 ft 14 kts 306°
2026-04-22 14:45 -23.80166 133.89814 1783 ft 19 kts 297°
2026-04-22 14:45 -23.80090 133.89670 1783 ft 22 kts 304°
2026-04-22 14:45 -23.80011 133.89519 1784 ft 22 kts 298°
2026-04-22 14:46 -23.79990 133.89424 1784 ft 13 kts 259°
2026-04-22 14:46 -23.80027 133.89332 1783 ft 14 kts 244°
2026-04-22 14:46 -23.80108 133.89327 1782 ft 16 kts 120°
2026-04-22 14:46 -23.80186 133.89494 1782 ft 51 kts 118°
2026-04-22 14:47 -23.80526 133.90129 1782 ft 141 kts 120°
2026-04-22 14:47 -23.81155 133.91290 2013 ft 199 kts 120°
2026-04-22 14:47 -23.81905 133.92687 2671 ft 226 kts 115°
2026-04-22 14:47 -23.82613 133.94142 4009 ft 217 kts 121°
2026-04-22 14:48 -23.83428 133.95582 4788 ft 226 kts 120°
2026-04-22 14:48 -23.84245 133.97152 5066 ft 249 kts 112°
2026-04-22 14:48 -23.84801 133.99000 5551 ft 260 kts 102°
2026-04-22 14:48 -23.85002 134.00989 6228 ft 265 kts 89°
2026-04-22 14:49 -23.84796 134.03010 6937 ft 271 kts 76°
2026-04-22 14:49 -23.84158 134.04985 7531 ft 279 kts 63°
2026-04-22 14:49 -23.83103 134.06778 8222 ft 283 kts 49°
2026-04-22 14:49 -23.81675 134.08270 8967 ft 285 kts 36°
2026-04-22 14:50 -23.79975 134.09347 9704 ft 288 kts 22°
2026-04-22 14:50 -23.78052 134.09970 10338 ft 293 kts
2026-04-22 14:50 -23.75945 134.10091 10551 ft 316 kts 356°
2026-04-22 14:50 -23.73707 134.09621 10719 ft 339 kts 339°
2026-04-22 14:51 -23.71576 134.08348 10890 ft 362 kts 321°
2026-04-22 14:51 -23.69577 134.06588 11135 ft 378 kts 322°
2026-04-22 14:51 -23.67422 134.04870 11680 ft 388 kts 324°
2026-04-22 14:51 -23.65191 134.03169 12298 ft 396 kts 324°
2026-04-22 14:52 -23.62899 134.01431 12882 ft 405 kts 324°
2026-04-22 14:52 -23.60582 133.99665 13669 ft 407 kts 323°
2026-04-22 14:52 -23.58253 133.97878 14300 ft 412 kts 323°
2026-04-22 14:52 -23.55908 133.96071 14970 ft 414 kts 323°
2026-04-22 14:53 -23.53552 133.94253 15679 ft 415 kts 323°
2026-04-22 14:53 -23.51187 133.92427 16362 ft 417 kts 323°
2026-04-22 14:53 -23.48811 133.90592 16991 ft 421 kts 323°
2026-04-22 14:53 -23.46417 133.88744 17636 ft 424 kts 323°
2026-04-22 14:54 -23.44002 133.86880 18285 ft 426 kts 323°
2026-04-22 14:54 -23.41575 133.85011 18851 ft 429 kts 322°
2026-04-22 14:54 -23.39115 133.83144 19415 ft 431 kts 324°
2026-04-22 14:54 -23.36481 133.81553 19963 ft 436 kts 332°
2026-04-22 14:55 -23.33649 133.80312 20527 ft 441 kts 338°
2026-04-22 14:55 -23.30683 133.79392 21074 ft 446 kts 344°
2026-04-22 14:55 -23.27602 133.78855 21591 ft 451 kts 348°
2026-04-22 14:55 -23.24481 133.78370 22101 ft 454 kts 347°
2026-04-22 14:56 -23.21353 133.77856 22607 ft 457 kts 346°
2026-04-22 14:56 -23.18202 133.77323 23115 ft 459 kts 346°
2026-04-22 14:56 -23.15034 133.76780 23608 ft 462 kts 346°
2026-04-22 14:56 -23.11855 133.76232 24025 ft 465 kts 346°
2026-04-22 14:57 -23.08649 133.75679 24411 ft 467 kts 345°
2026-04-22 14:57 -23.05426 133.75124 24808 ft 470 kts 345°
2026-04-22 14:57 -23.02194 133.74568 25200 ft 472 kts 345°
2026-04-22 14:57 -22.98980 133.74017 25583 ft 475 kts 345°
2026-04-22 14:58 -22.95669 133.73449 25957 ft 477 kts 345°
2026-04-22 14:58 -22.92420 133.72892 26328 ft 480 kts 345°
2026-04-22 14:58 -22.89109 133.72326 26706 ft 482 kts 345°
2026-04-22 14:58 -22.85788 133.71758 27079 ft 485 kts 345°
2026-04-22 14:59 -22.82443 133.71186 27441 ft 487 kts 345°
2026-04-22 14:59 -22.79088 133.70612 27794 ft 490 kts 345°
2026-04-22 14:59 -22.76804 133.70222 28039 ft 492 kts 345°
2026-04-22 14:59 -22.72321 133.69457 28481 ft 494 kts 346°
2026-04-22 15:00 -22.70018 133.69064 28720 ft 496 kts 346°
2026-04-22 15:00 -22.66646 133.68489 29037 ft 498 kts 346°
2026-04-22 15:00 -22.63221 133.67905 29338 ft 500 kts 346°
2026-04-22 15:00 -22.59780 133.67319 29611 ft 502 kts 346°
2026-04-22 15:01 -22.56315 133.66729 29893 ft 505 kts 346°
2026-04-22 15:01 -22.52819 133.66133 30165 ft 506 kts 346°
2026-04-22 15:01 -22.49342 133.65542 30459 ft 506 kts 346°
2026-04-22 15:01 -22.45908 133.64960 30844 ft 503 kts 346°
2026-04-22 15:02 -22.42464 133.64377 31255 ft 500 kts 346°
2026-04-22 15:02 -22.39032 133.63796 31638 ft 498 kts 345°
2026-04-22 15:02 -22.35615 133.63216 32005 ft 496 kts 345°
2026-04-22 15:02 -22.32209 133.62638 32358 ft 494 kts 345°
2026-04-22 15:03 -22.28816 133.62062 32694 ft 492 kts 345°
2026-04-22 15:03 -22.25438 133.61488 32963 ft 492 kts 345°
2026-04-22 15:03 -22.18628 133.60330 33044 ft 495 kts 345°
2026-04-22 15:04 -22.11845 133.59184 33044 ft 490 kts 345°
2026-04-22 15:04 -22.05118 133.58047 33036 ft 489 kts 345°
2026-04-22 15:05 -21.98438 133.56918 33054 ft 489 kts 345°
2026-04-22 15:05 -21.91711 133.55780 33049 ft 490 kts 345°
2026-04-22 15:06 -21.84968 133.54642 33039 ft 491 kts 345°
2026-04-22 15:06 -21.78203 133.53503 33047 ft 492 kts 345°
2026-04-22 15:07 -21.71419 133.52361 33044 ft 493 kts 345°
2026-04-22 15:07 -21.64650 133.51223 33043 ft 493 kts 345°
2026-04-22 15:08 -21.57909 133.50091 33032 ft 493 kts 345°
2026-04-22 15:08 -21.51132 133.48953 33039 ft 493 kts 345°
2026-04-22 15:09 -21.44350 133.47816 33034 ft 493 kts 345°
2026-04-22 15:09 -21.37576 133.46680 33022 ft 492 kts 345°
2026-04-22 15:10 -21.30800 133.45547 33030 ft 492 kts 345°
2026-04-22 15:10 -21.24032 133.44419 33033 ft 492 kts 345°
2026-04-22 15:11 -21.17263 133.43294 33033 ft 492 kts 345°
2026-04-22 15:11 -21.10478 133.42166 33029 ft 492 kts 345°
2026-04-22 15:12 -21.03744 133.41048 33014 ft 492 kts 345°
2026-04-22 15:12 -20.96976 133.39924 33028 ft 493 kts 345°
2026-04-22 15:13 -20.90199 133.38800 33032 ft 493 kts 345°
2026-04-22 15:13 -20.83411 133.37676 33017 ft 493 kts 345°
2026-04-22 15:14 -20.76631 133.36554 33010 ft 493 kts 345°
2026-04-22 15:14 -20.69840 133.35431 32995 ft 493 kts 346°
2026-04-22 15:15 -20.63061 133.34311 33023 ft 494 kts 346°
2026-04-22 15:15 -20.56259 133.33188 33018 ft 494 kts 346°
2026-04-22 15:16 -20.49454 133.32065 33010 ft 495 kts 346°
2026-04-22 15:16 -20.42686 133.30950 33010 ft 496 kts 346°
2026-04-22 15:17 -20.35863 133.29827 33008 ft 497 kts 346°
2026-04-22 15:17 -20.29014 133.28700 33002 ft 497 kts 346°
2026-04-22 15:18 -20.22165 133.27575 32998 ft 498 kts 346°
2026-04-22 15:18 -20.15355 133.26457 33002 ft 498 kts 346°
2026-04-22 15:19 -20.08465 133.25327 32998 ft 498 kts 346°
2026-04-22 15:19 -20.01640 133.24208 32998 ft 498 kts 346°
2026-04-22 15:20 -19.94790 133.23087 32992 ft 499 kts 346°
2026-04-22 15:20 -19.87924 133.21964 32999 ft 499 kts 346°
2026-04-22 15:21 -19.81062 133.20842 32995 ft 499 kts 346°
2026-04-22 15:21 -19.74198 133.19721 32986 ft 499 kts 346°
2026-04-22 15:22 -19.67335 133.18601 32993 ft 499 kts 346°
2026-04-22 15:22 -19.60460 133.17480 32990 ft 499 kts 346°
2026-04-22 15:23 -19.53639 133.16369 32983 ft 499 kts 346°
2026-04-22 15:23 -19.46767 133.15251 32985 ft 499 kts 346°
2026-04-22 15:24 -19.39909 133.14136 32987 ft 499 kts 346°
2026-04-22 15:24 -19.33052 133.13022 32985 ft 499 kts 346°
2026-04-22 15:25 -19.26203 133.11910 32981 ft 498 kts 346°
2026-04-22 15:25 -19.19352 133.10798 32984 ft 498 kts 346°
2026-04-22 15:26 -19.12487 133.09686 32983 ft 498 kts 346°
2026-04-22 15:26 -19.05644 133.08578 32972 ft 498 kts 346°
2026-04-22 15:27 -18.98832 133.07475 32978 ft 498 kts 346°
2026-04-22 15:27 -18.91981 133.06368 32980 ft 498 kts 346°
2026-04-22 15:28 -18.85129 133.05261 32972 ft 498 kts 346°
2026-04-22 15:28 -18.78275 133.04155 32967 ft 498 kts 347°
2026-04-22 15:29 -18.71421 133.03050 32976 ft 498 kts 347°
2026-04-22 15:30 -18.61131 133.01392 32968 ft 499 kts 347°
2026-04-22 15:30 -18.54271 133.00288 32968 ft 499 kts 347°
2026-04-22 15:31 -18.47449 132.99191 32968 ft 499 kts 347°
2026-04-22 15:31 -18.40587 132.98089 32961 ft 499 kts 347°
2026-04-22 15:32 -18.33725 132.96987 32957 ft 499 kts 347°
2026-04-22 15:32 -18.26856 132.95885 32960 ft 499 kts 347°
2026-04-22 15:33 -18.19996 132.94786 32956 ft 499 kts 347°
2026-04-22 15:33 -18.13133 132.93687 32973 ft 499 kts 347°
2026-04-22 15:34 -18.06268 132.92588 32964 ft 499 kts 347°
2026-04-22 15:34 -17.99390 132.91488 32964 ft 500 kts 347°
2026-04-22 15:35 -17.93666 132.90573 32967 ft 500 kts 347°
2026-04-22 15:35 -17.85624 132.89289 32953 ft 500 kts 347°
2026-04-22 15:36 -17.78775 132.88196 32955 ft 501 kts 347°
2026-04-22 15:36 -17.71872 132.87096 32954 ft 501 kts 347°
2026-04-22 15:37 -17.64979 132.85999 32954 ft 502 kts 347°
2026-04-22 15:37 -17.58068 132.84898 32952 ft 502 kts 347°
2026-04-22 15:38 -17.51163 132.83800 32956 ft 502 kts 347°
2026-04-22 15:38 -17.40843 132.82161 32955 ft 502 kts 347°
2026-04-22 15:39 -17.33888 132.81057 32952 ft 502 kts 347°
2026-04-22 15:39 -17.27026 132.79968 32956 ft 502 kts 347°
2026-04-22 15:40 -17.20118 132.78874 32957 ft 502 kts 347°
2026-04-22 15:40 -17.13209 132.77779 32952 ft 502 kts 347°
2026-04-22 15:41 -17.06299 132.76685 32955 ft 502 kts 348°
2026-04-22 15:41 -16.99380 132.75591 32951 ft 502 kts 348°
2026-04-22 15:42 -16.92459 132.74501 32952 ft 502 kts 348°
2026-04-22 15:42 -16.85536 132.73413 32943 ft 503 kts 348°
2026-04-22 15:43 -16.78665 132.72333 32943 ft 503 kts 348°
2026-04-22 15:43 -16.71747 132.71246 32946 ft 503 kts 348°
2026-04-22 15:44 -16.64820 132.70158 32943 ft 503 kts 348°
2026-04-22 15:44 -16.57902 132.69073 32939 ft 503 kts 348°
2026-04-22 15:45 -16.50987 132.67988 32943 ft 502 kts 348°
2026-04-22 15:45 -16.44073 132.66905 32941 ft 502 kts 348°
2026-04-22 15:46 -16.37205 132.65829 32936 ft 502 kts 348°
2026-04-22 15:46 -16.30293 132.64748 32943 ft 502 kts 348°
2026-04-22 15:47 -16.23382 132.63667 32941 ft 502 kts 348°
2026-04-22 15:47 -16.17629 132.62768 32945 ft 502 kts 348°
2026-04-22 15:48 -16.09550 132.61508 32943 ft 502 kts 348°
2026-04-22 15:48 -16.02629 132.60429 32938 ft 502 kts 348°
2026-04-22 15:49 -15.95716 132.59351 32937 ft 502 kts 348°
2026-04-22 15:49 -15.88795 132.58273 32927 ft 502 kts 348°
2026-04-22 15:50 -15.83047 132.57378 32931 ft 502 kts 348°
2026-04-22 15:50 -15.75003 132.56127 32933 ft 503 kts 348°
2026-04-22 15:51 -15.69253 132.55233 32933 ft 503 kts 348°
2026-04-22 15:51 -15.62334 132.54158 32924 ft 503 kts 348°
2026-04-22 15:52 -15.55413 132.53084 32928 ft 503 kts 348°
2026-04-22 15:52 -15.48491 132.52010 32925 ft 503 kts 348°
2026-04-22 15:53 -15.41560 132.50936 32930 ft 503 kts 348°
2026-04-22 15:53 -15.34644 132.49864 32922 ft 503 kts 348°
2026-04-22 15:54 -15.27716 132.48791 32921 ft 503 kts 348°
2026-04-22 15:54 -15.20780 132.47718 32925 ft 503 kts 348°
2026-04-22 15:55 -15.13861 132.46648 32923 ft 503 kts 348°
2026-04-22 15:55 -15.06943 132.45579 32925 ft 503 kts 348°
2026-04-22 15:56 -15.00026 132.44511 32921 ft 503 kts 348°
2026-04-22 15:56 -14.93099 132.43442 32922 ft 503 kts 348°
2026-04-22 15:57 -14.86218 132.42381 32912 ft 503 kts 348°
2026-04-22 15:57 -14.79291 132.41313 32914 ft 503 kts 348°
2026-04-22 15:58 -14.72371 132.40247 32912 ft 503 kts 348°
2026-04-22 15:58 -14.65448 132.39182 32909 ft 503 kts 348°
2026-04-22 15:59 -14.58524 132.38116 32906 ft 503 kts 348°
2026-04-22 15:59 -14.51598 132.37051 32913 ft 503 kts 348°
2026-04-22 16:00 -14.44669 132.35947 32907 ft 503 kts 348°
2026-04-22 16:00 -14.37750 132.34826 32911 ft 503 kts 348°
2026-04-22 16:01 -14.30828 132.33712 32911 ft 503 kts 348°
2026-04-22 16:01 -14.23955 132.32391 32895 ft 500 kts 340°
2026-04-22 16:02 -14.17599 132.29597 32910 ft 495 kts 327°
2026-04-22 16:02 -14.11938 132.25674 32896 ft 493 kts 323°
2026-04-22 16:03 -14.06303 132.21620 32905 ft 494 kts 323°
2026-04-22 16:03 -14.00638 132.17597 32893 ft 494 kts 323°
2026-04-22 16:04 -13.94964 132.13604 32901 ft 495 kts 323°
2026-04-22 16:04 -13.89278 132.09610 32893 ft 495 kts 323°
2026-04-22 16:05 -13.83589 132.05615 32881 ft 495 kts 323°
2026-04-22 16:05 -13.77894 132.01616 32882 ft 496 kts 323°
2026-04-22 16:06 -13.72195 131.97616 32880 ft 496 kts 324°
2026-04-22 16:06 -13.66494 131.93618 32879 ft 496 kts 324°
2026-04-22 16:07 -13.60795 131.89622 32878 ft 496 kts 324°
2026-04-22 16:07 -13.55097 131.85630 32878 ft 496 kts 324°
2026-04-22 16:08 -13.49371 131.81618 31869 ft 508 kts 324°
2026-04-22 16:08 -13.46446 131.79571 31044 ft 508 kts 324°
2026-04-22 16:08 -13.43569 131.77559 30377 ft 506 kts 324°
2026-04-22 16:09 -13.40668 131.75531 29716 ft 502 kts 324°
2026-04-22 16:09 -13.37787 131.73519 29026 ft 498 kts 324°
2026-04-22 16:09 -13.34938 131.71528 28399 ft 494 kts 324°
2026-04-22 16:09 -13.32113 131.69554 27812 ft 490 kts 324°
2026-04-22 16:10 -13.29300 131.67589 27225 ft 486 kts 324°
2026-04-22 16:10 -13.26519 131.65647 26652 ft 482 kts 324°
2026-04-22 16:10 -13.23749 131.63716 26077 ft 479 kts 324°
2026-04-22 16:10 -13.20997 131.61795 25496 ft 477 kts 324°
2026-04-22 16:11 -13.18267 131.59886 24921 ft 474 kts 325°
2026-04-22 16:11 -13.15539 131.57982 24350 ft 473 kts 324°
2026-04-22 16:11 -13.12820 131.56087 23774 ft 471 kts 325°
2026-04-22 16:11 -13.10109 131.54197 23161 ft 470 kts 325°
2026-04-22 16:12 -13.07414 131.52316 22532 ft 468 kts 324°
2026-04-22 16:12 -13.04728 131.50444 21955 ft 465 kts 325°
2026-04-22 16:12 -13.02065 131.48589 21396 ft 462 kts 325°
2026-04-22 16:12 -12.99412 131.46743 20836 ft 459 kts 325°
2026-04-22 16:13 -12.96774 131.44907 20294 ft 457 kts 325°
2026-04-22 16:13 -12.94149 131.43079 19752 ft 455 kts 326°
2026-04-22 16:13 -12.91569 131.41282 19199 ft 453 kts 326°
2026-04-22 16:13 -12.88931 131.39447 18641 ft 452 kts 326°
2026-04-22 16:14 -12.86364 131.37661 18143 ft 450 kts 326°
2026-04-22 16:14 -12.83783 131.35865 17612 ft 447 kts 326°
2026-04-22 16:14 -12.81215 131.34079 17052 ft 444 kts 326°
2026-04-22 16:14 -12.78675 131.32313 16692 ft 437 kts 326°
2026-04-22 16:15 -12.76187 131.30583 16306 ft 430 kts 326°
2026-04-22 16:15 -12.73731 131.28876 15903 ft 424 kts 326°
2026-04-22 16:15 -12.71308 131.27191 15612 ft 416 kts 326°
2026-04-22 16:15 -12.68931 131.25540 15312 ft 409 kts 326°
2026-04-22 16:16 -12.66592 131.23914 14985 ft 404 kts 327°
2026-04-22 16:16 -12.64271 131.22302 14546 ft 403 kts 327°
2026-04-22 16:16 -12.62019 131.20625 14068 ft 397 kts 317°
2026-04-22 16:16 -12.60351 131.18384 13512 ft 399 kts 296°
2026-04-22 16:17 -12.59416 131.15731 12976 ft 396 kts 288°
2026-04-22 16:17 -12.58589 131.13041 12482 ft 395 kts 288°
2026-04-22 16:17 -12.57728 131.10393 12235 ft 388 kts 289°
2026-04-22 16:17 -12.56873 131.07815 12150 ft 376 kts 289°
2026-04-22 16:18 -12.56042 131.05320 12059 ft 366 kts 289°
2026-04-22 16:18 -12.55233 131.02890 11986 ft 355 kts 290°
2026-04-22 16:18 -12.54449 131.00535 11908 ft 345 kts 290°
2026-04-22 16:18 -12.53688 130.98247 11835 ft 335 kts 290°
2026-04-22 16:19 -12.52948 130.96024 11761 ft 325 kts 290°
2026-04-22 16:19 -12.52230 130.93866 11653 ft 316 kts 290°
2026-04-22 16:19 -12.51532 130.91770 11513 ft 308 kts 290°
2026-04-22 16:19 -12.50845 130.89707 11281 ft 305 kts 290°
2026-04-22 16:20 -12.50161 130.87666 11041 ft 301 kts 290°
2026-04-22 16:20 -12.49501 130.85684 10840 ft 296 kts 289°
2026-04-22 16:20 -12.48835 130.83692 10495 ft 297 kts 290°
2026-04-22 16:20 -12.48162 130.81692 10162 ft 297 kts 290°
2026-04-22 16:21 -12.47489 130.79692 9827 ft 298 kts 290°
2026-04-22 16:21 -12.46811 130.77688 9522 ft 297 kts 290°
2026-04-22 16:21 -12.46141 130.75704 9243 ft 294 kts 290°
2026-04-22 16:21 -12.45477 130.73733 8989 ft 292 kts 290°
2026-04-22 16:22 -12.44156 130.69810 8332 ft 292 kts 290°
2026-04-22 16:22 -12.43422 130.67885 7979 ft 288 kts 302°
2026-04-22 16:22 -12.42063 130.66429 7543 ft 284 kts 333°
2026-04-22 16:23 -12.38353 130.65881 6906 ft 267 kts 18°
2026-04-22 16:23 -12.36737 130.66713 6528 ft 258 kts 49°
2026-04-22 16:23 -12.35827 130.68206 6374 ft 242 kts 76°
2026-04-22 16:24 -12.35564 130.69849 6284 ft 228 kts 90°
2026-04-22 16:24 -12.36260 130.72820 6034 ft 204 kts 109°
2026-04-22 16:24 -12.36738 130.74139 5867 ft 191 kts 109°
2026-04-22 16:25 -12.37176 130.75364 5562 ft 177 kts 108°
2026-04-22 16:25 -12.37962 130.77603 4764 ft 158 kts 108°
2026-04-22 16:25 -12.38318 130.78660 4064 ft 164 kts 108°
2026-04-22 16:26 -12.38699 130.79792 3325 ft 170 kts 109°
2026-04-22 16:26 -12.39085 130.80931 2663 ft 170 kts 108°
2026-04-22 16:26 -12.39477 130.82088 1908 ft 175 kts 109°
2026-04-22 16:26 -12.39854 130.83279 1209 ft 178 kts 108°
2026-04-22 16:27 -12.40247 130.84468 661 ft 173 kts 107°
2026-04-22 16:27 -12.40623 130.85554 360 ft 151 kts 107°
2026-04-22 16:27 -12.40953 130.86552 160 ft 151 kts 107°
2026-04-22 16:27 -12.41274 130.87530 107 ft 132 kts 108°
2026-04-22 16:28 -12.41491 130.88197 99 ft 64 kts 109°
2026-04-22 16:28 -12.41566 130.88404 98 ft 0 kts 125°
2026-04-22 16:28 -12.41577 130.88405 100 ft 2 kts 183°
2026-04-22 16:28 -12.41580 130.88368 98 ft 8 kts 289°
2026-04-22 16:29 -12.41555 130.88311 100 ft 10 kts 294°
2026-04-22 16:29 -12.41529 130.88232 99 ft 12 kts 285°
2026-04-22 16:29 -12.41503 130.88150 101 ft 12 kts 290°
2026-04-22 16:29 -12.41471 130.88070 103 ft 12 kts 293°
2026-04-22 16:30 -12.41439 130.88023 102 ft 12 kts 321°
2026-04-22 16:30 -12.41331 130.88015 103 ft 12 kts 14°
2026-04-22 16:30 -12.41251 130.88044 106 ft 12 kts 20°
2026-04-22 16:30 -12.41172 130.88072 105 ft 12 kts 18°
2026-04-22 16:31 -12.41091 130.88084 102 ft 12 kts 339°
2026-04-22 16:31 -12.41037 130.88017 101 ft 13 kts 288°
2026-04-22 16:31 -12.41019 130.87959 102 ft 7 kts 285°
2026-04-22 16:31 -12.40979 130.87942 102 ft 8 kts 17°
2026-04-22 16:32 -12.40977 130.87942 96 ft 0 kts 18°